TimeAKST,TemperatureF,Dew PointF,Humidity,Sea Level PressureIn,VisibilityMPH,Wind Direction,Wind SpeedMPH,Gust SpeedMPH,PrecipitationIn,Events,Conditions,WindDirDegrees,DateUTC
12:53 AM,39.0,37.0,93,29.70,10.0,ESE,8.1,-,0.02,Rain,Light Rain,120,2013-01-24 09:53:00
1:08 AM,39.2,35.6,87,29.70,10.0,ESE,10.4,-,0.01,Rain,Light Rain,120,2013-01-24 10:08:00
1:15 AM,39.2,35.6,87,29.70,10.0,ESE,9.2,-,0.01,,Overcast,120,2013-01-24 10:15:00
1:53 AM,37.9,36.0,93,29.70,10.0,East,8.1,-,0.01,Rain,Light Rain,90,2013-01-24 10:53:00
3:53 AM,39.0,36.0,89,29.69,10.0,ESE,6.9,-,0.00,,Overcast,120,2013-01-24 12:53:00
4:19 AM,39.2,37.4,93,29.69,10.0,SSE,9.2,-,0.00,Rain,Light Rain,160,2013-01-24 13:19:00
4:33 AM,39.2,37.4,93,29.69,10.0,SSE,8.1,-,0.00,Rain,Light Rain,150,2013-01-24 13:33:00
4:53 AM,39.0,37.0,93,29.68,10.0,SE,5.8,-,0.00,,Overcast,130,2013-01-24 13:53:00
5:53 AM,39.0,36.0,89,29.67,10.0,Calm,Calm,-,N/A,,Overcast,0,2013-01-24 14:53:00
6:53 AM,37.9,37.0,97,29.65,10.0,Calm,Calm,-,0.00,,Overcast,0,2013-01-24 15:53:00
7:53 AM,37.0,36.0,96,29.63,10.0,NE,3.5,-,N/A,,Overcast,40,2013-01-24 16:53:00
8:53 AM,37.9,37.0,97,29.63,10.0,Calm,Calm,-,N/A,,Overcast,0,2013-01-24 17:53:00
9:53 AM,39.0,37.0,93,29.61,10.0,Calm,Calm,-,N/A,,Overcast,0,2013-01-24 18:53:00
10:53 AM,39.0,37.0,93,29.59,10.0,Variable,4.6,-,N/A,,Overcast,0,2013-01-24 19:53:00
11:53 AM,43.0,35.1,74,29.55,10.0,East,9.2,-,N/A,,Overcast,100,2013-01-24 20:53:00
12:53 PM,44.1,34.0,68,29.51,10.0,Calm,Calm,-,N/A,,Overcast,0,2013-01-24 21:53:00
1:53 PM,44.1,33.1,65,29.46,10.0,East,10.4,-,N/A,,Overcast,100,2013-01-24 22:53:00
2:53 PM,44.1,33.1,65,29.42,10.0,East,11.5,-,N/A,,Overcast,90,2013-01-24 23:53:00
3:53 PM,44.1,32.0,63,29.37,10.0,East,20.7,26.5,0.01,,Overcast,90,2013-01-25 00:53:00
4:53 PM,43.0,34.0,71,29.35,10.0,East,16.1,-,N/A,,Mostly Cloudy,100,2013-01-25 01:53:00
5:53 PM,43.0,34.0,71,29.32,10.0,ESE,15.0,-,N/A,,Mostly Cloudy,110,2013-01-25 02:53:00
6:53 PM,43.0,34.0,71,29.29,10.0,East,13.8,-,N/A,,Mostly Cloudy,100,2013-01-25 03:53:00
7:53 PM,43.0,33.1,68,29.25,10.0,East,18.4,26.5,N/A,,Mostly Cloudy,90,2013-01-25 04:53:00
8:53 PM,43.0,33.1,68,29.22,10.0,East,20.7,32.2,N/A,,Overcast,100,2013-01-25 05:53:00
9:53 PM,44.1,32.0,63,29.21,10.0,East,13.8,24.2,N/A,,Mostly Cloudy,90,2013-01-25 06:53:00
10:53 PM,43.0,32.0,65,29.20,10.0,ESE,10.4,23.0,N/A,,Scattered Clouds,110,2013-01-25 07:53:00
11:53 PM,43.0,33.1,68,29.19,10.0,East,16.1,21.9,N/A,,Scattered Clouds,90,2013-01-25 08:53:00